Tuesday, February 20, 2018, 10:34 AM EST
Back to Local

KFDK, Frederick, Frederick Municipal Airport

Location: Frederick, MD, United States Lat: 39.417
Local Time: 10:34 AM EST (15:34 GMT) Lon: -77.374
Time Zone: US/Eastern Elev: 301 ft

Show me the last for .
Show Coded

Time T Td Feel RH Dir Speed Gust Alt SLP Vis Weather Sky Remarks
2018-02-20 10:26 59 54 - 82 230° 10 - 30.38 - 7 CLR None
2018-02-20 09:47 55 55 - 100 230° 7 - 30.39 - 5 BR OVC007 None
2018-02-20 08:47 52 52 - 100 230° 7 - 30.39 - 1 BR OVC003 None
2018-02-20 07:47 48 48 46 100 230° 6 - 30.38 - 0 BR OVC003 None
2018-02-20 06:50 46 46 44 100 200° 6 - 30.37 - 0 FG OVC003 None
2018-02-20 06:35 46 46 45 100 190° 3 - 30.36 - 0 FG OVC003 None
2018-02-20 06:15 46 46 44 100 230° 5 - 30.36 - 0 FG OVC003 None
2018-02-20 05:55 46 46 45 100 200° 3 - 30.35 - 0 FG OVC003 None
2018-02-20 05:35 46 46 44 100 210° 5 - 30.35 - 0 FG OVC003 None
2018-02-20 05:15 46 46 44 100 240° 5 - 30.34 - 0 FG OVC003 None
2018-02-20 04:55 46 46 44 100 250° 5 - 30.33 - 0 BR OVC003 None
2018-02-20 04:35 46 46 44 100 220° 5 - 30.33 - 1 BR OVC003 None
2018-02-20 04:15 46 46 44 100 210° 5 - 30.33 - 2 BR OVC003 None
2018-02-20 03:55 46 46 44 100 210° 5 - 30.33 - 4 BR OVC003 None
2018-02-20 03:35 46 46 44 100 210° 6 - 30.33 - 4 BR OVC003 None
2018-02-20 03:15 46 46 44 100 210° 6 - 30.33 - 5 BR OVC003 None
2018-02-20 02:55 46 46 43 100 210° 7 - 30.33 - 5 BR OVC005 None
2018-02-20 02:35 46 46 44 100 210° 6 - 30.33 - 7 OVC005 None
2018-02-20 02:15 46 46 44 100 220° 6 - 30.34 - 7 OVC005 None
2018-02-20 01:55 46 46 42 100 200° 8 - 30.34 - 10 OVC005 None
2018-02-20 01:35 46 46 43 100 210° 7 - 30.33 - 10 OVC007 None
2018-02-20 01:15 46 46 44 100 210° 6 - 30.34 - 10 OVC007 None
2018-02-20 00:55 46 46 45 100 190° 3 - 30.34 - 10 OVC007 None
2018-02-20 00:35 46 46 45 100 220° 3 - 30.35 - 10 OVC007 None
2018-02-20 00:15 46 46 - 100 - Calm - 30.35 - 10 OVC007 None
2018-02-19 23:55 46 46 - 100 - Calm - 30.35 - 10 OVC007 None
2018-02-19 23:35 46 46 45 100 190° 3 - 30.35 - 10 OVC007 None
2018-02-19 23:15 46 46 - 100 - Calm - 30.35 - 10 OVC007 None
2018-02-19 22:55 46 46 45 100 180° 3 - 30.35 - 7 OVC007 None
2018-02-19 22:35 46 46 - 100 - Calm - 30.35 - 7 OVC007 None
2018-02-19 22:15 46 46 - 100 - Calm - 30.36 - 7 OVC007 None
2018-02-19 21:55 46 46 45 100 180° 3 - 30.36 - 7 OVC007 None
2018-02-19 21:35 46 46 45 100 190° 3 - 30.36 - 7 OVC007 None
2018-02-19 21:15 46 46 45 100 170° 3 - 30.36 - 5 BR OVC005 None
2018-02-19 20:55 46 46 45 100 180° 3 - 30.36 - 5 BR OVC005 None
2018-02-19 20:47 46 46 44 100 200° 5 - 30.36 - 5 BR OVC005 None
2018-02-19 19:55 46 46 44 100 190° 5 - 30.36 - 5 BR OVC005 None
2018-02-19 18:55 46 46 44 100 200° 5 - 30.36 - 7 OVC005 None
2018-02-19 17:47 46 46 42 100 180° 8 - 30.35 - 5 BR OVC007 None
2018-02-19 16:47 46 46 42 100 180° 8 - 30.34 - 5 BR OVC007 None
2018-02-19 15:47 46 46 43 100 170° 7 - 30.35 - 2 BR OVC007 None
2018-02-19 14:47 46 46 44 100 180° 6 - 30.37 - 2 BR OVC007 None
2018-02-19 13:47 45 37 41 75 190° 7 - 30.38 - 10 OVC009 None
2018-02-19 12:47 45 37 41 75 190° 7 - 30.40 - 10 OVC013 None
2018-02-19 11:47 45 36 41 70 190° 7 - 30.45 - 10 SCT019 OVC025 None
2018-02-19 10:47 43 36 38 75 190° 8 - 30.48 - 10 SCT016 OVC045 None

Support USWX by starting your Amazon purchase here.